This demonstration page uses our WeatherBlox Daily Observations layout. Learn more.

Left ArrowRight Arrow

47.50024, -111.30081

Hourly Observations for January 23, 2022

Temp ( °F °C ) Dew Point ( °F °C ) Humidity (%) Winds ( mph kmh ) Pressure ( in mb ) Visibility ( mi km ) Precip ( " mm )
12:53 am 00:53 Clear 35 1.7 22 -5.6 59 59 SSW 17 28 30.24 1024 10 16 0.00 0.00
1:53 am 01:53 Clear 35 1.7 22 -5.6 59 59 SSW 18 30 30.22 1023 10 16 0.00 0.00
2:53 am 02:53 Clear 37 2.8 22 -5.6 54 54 SW 23 37 30.21 1023 10 16 0.00 0.00
3:53 am 03:53 Clear 37 2.8 22 -5.6 54 54 SW 22 35 30.20 1023 10 16 0.00 0.00
4:53 am 04:53 Clear 37 2.8 22 -5.6 54 54 SW 20 31 30.19 1023 10 16 0.00 0.00
5:53 am 05:53 Clear 36 2.2 21 -6.1 55 55 SW 18 30 30.19 1022 10 16 0.00 0.00
6:53 am 06:53 Clear 36 2.2 21 -6.1 55 55 SW 21 33 30.16 1021 10 16 0.00 0.00
7:53 am 07:53 Clear 37 2.8 20 -6.7 50 50 SW 18 30 30.14 1021 10 16 0.00 0.00
8:53 am 08:53 Sunny 38 3.3 18 -7.8 44 44 SSW 15 24 30.14 1021 10 16 0.00 0.00
9:53 am 09:53 Sunny 43 6.1 18 -7.8 37 37 SW 16 26 30.11 1020 10 16 0.00 0.00
10:53 am 10:53 Sunny 49 9.4 15 -9.4 26 26 SW 18 30 30.07 1018 10 16 0.00 0.00
11:53 am 11:53 Sunny 52 11.1 13 -10.6 21 21 WSW 28 44 30.02 1017 10 16 0.00 0.00
12:53 pm 12:53 Cloudy 52 11.1 13 -10.6 21 21 SW 25 41 29.99 1016 10 16 0.00 0.00
1:53 pm 13:53 Sunny 52 11.1 14 -10 22 22 SW 23 37 29.96 1015 10 16 0.00 0.00
2:53 pm 14:53 Sunny 51 10.6 12 -11.1 21 21 WSW 29 46 29.94 1014 10 16 0.00 0.00
3:53 pm 15:53 Sunny 49 9.4 14 -10 25 25 WSW 21 33 29.97 1015 10 16 0.00 0.00
4:53 pm 16:53 Partly Cloudy 47 8.3 14 -10 26 26 SW 21 33 29.98 1015 10 16 0.00 0.00
5:53 pm 17:53 Clear 39 3.9 15 -9.4 38 38 SW 12 19 30.02 1017 10 16 0.00 0.00
6:53 pm 18:53 Clear 45 7.2 13 -10.6 27 27 WSW 15 24 30.01 1016 10 16 0.00 0.00
7:53 pm 19:53 Clear 42 5.6 13 -10.6 30 30 SW 13 20 30.03 1017 10 16 0.00 0.00
8:53 pm 20:53 Clear 39 3.9 14 -10 36 36 WSW 9 15 30.06 1018 10 16 0.00 0.00
9:53 pm 21:53 Clear 37 2.8 14 -10 39 39 W 12 19 30.06 1018 10 16 0.00 0.00
10:53 pm 22:53 Clear 35 1.7 14 -10 42 42 NE 8 13 30.10 1019 10 16 0.00 0.00
11:53 pm 23:53 Clear 34 1.1 16 -8.9 48 48 NE 3 6 30.11 1020 10 16 0.00 0.00

Powered by AerisWeather